E1057 Weather Reports


Display with metric or nautical units.
time (UTC)temp
F
wind
direction
speed
MPH
gust
MPH
rain 1hr
in
rain 24hr
in
rain mn
in
humidity
%
barometer
mb
20260505102058 52 165 0.0 0.0 0.00 0.00 0.00 72 1011.0
20260505101533 52 165 0.0 0.0 0.00 0.00 0.00 70 1010.8
20260505101051 53 165 0.0 0.0 0.00 0.00 0.00 70 1010.8
20260505100515 54 165 0.0 0.0 0.00 0.00 0.00 69 1010.8
20260505100038 54 165 0.0 0.0 0.00 0.00 0.00 69 1010.7
20260505095505 54 165 0.0 0.0 0.00 0.00 0.00 70 1010.7
20260505095033 55 165 0.0 0.0 0.00 0.00 0.00 66 1010.7
20260505094616 55 165 0.0 0.0 0.00 0.00 0.00 67 1010.7
20260505094029 55 165 0.0 0.0 0.00 0.00 0.00 66 1010.6
20260505093552 55 165 0.0 0.0 0.00 0.00 0.00 67 1010.6
20260505093014 55 165 0.0 0.0 0.00 0.00 0.00 66 1010.7
20260505092545 55 165 0.0 0.0 0.00 0.00 0.00 64 1010.7
20260505092011 55 165 0.0 0.0 0.00 0.00 0.00 63 1010.7
20260505091543 56 165 0.0 0.0 0.00 0.00 0.00 64 1010.6
20260505091010 55 165 0.0 0.0 0.00 0.00 0.00 63 1010.6
20260505090539 55 165 0.0 1.0 0.00 0.00 0.00 64 1010.6
20260505090005 55 165 0.0 1.0 0.00 0.00 0.00 65 1010.6
20260505085533 55 165 0.0 0.0 0.00 0.00 0.00 65 1010.6
20260505085059 55 165 0.0 0.0 0.00 0.00 0.00 66 1010.6
20260505084537 55 165 0.0 0.0 0.00 0.00 0.00 68 1010.6
20260505084052 55 165 0.0 0.0 0.00 0.00 0.00 65 1010.6
20260505083523 55 165 0.0 0.0 0.00 0.00 0.00 68 1010.6
20260505083057 55 165 0.0 0.0 0.00 0.00 0.00 67 1010.5
20260505082524 55 165 0.0 0.0 0.00 0.00 0.00 66 1010.5
20260505082049 55 165 0.0 1.0 0.00 0.00 0.00 68 1010.5
20260505081506 55 165 0.0 1.0 0.00 0.00 0.00 66 1010.2
20260505081036 55 152 0.0 0.0 0.00 0.00 0.00 65 1010.2
20260505080558 55 152 0.0 0.0 0.00 0.00 0.00 64 1010.2
20260505080038 55 152 0.0 0.0 0.00 0.00 0.00 65 1010.2
20260505075549 55 152 0.0 0.0 0.00 0.00 0.00 66 1010.2
20260505075013 55 152 0.0 0.0 0.00 0.00 0.00 67 1010.2
20260505074541 55 152 0.0 0.0 0.00 0.00 0.00 65 1010.4
20260505074005 55 152 0.0 0.0 0.00 0.00 0.00 67 1010.4
20260505073531 55 152 0.0 0.0 0.00 0.00 0.00 68 1010.4
20260505073103 55 152 0.0 0.0 0.00 0.00 0.00 67 1010.4
20260505072528 55 152 0.0 0.0 0.00 0.00 0.00 68 1010.7
20260505072049 55 152 0.0 0.0 0.00 0.00 0.00 67 1010.7
20260505071523 55 152 0.0 0.0 0.00 0.00 0.00 68 1010.7
20260505071051 55 152 0.0 0.0 0.00 0.00 0.00 67 1010.7
20260505070528 55 152 0.0 0.0 0.00 0.00 0.00 67 1010.7
20260505070049 55 152 0.0 0.0 0.00 0.00 0.00 66 1010.7
20260505065523 55 152 0.0 0.0 0.00 0.00 0.00 67 1010.8
20260505065048 55 152 0.0 0.0 0.00 0.00 0.00 68 1010.8
20260505064520 55 152 0.0 1.0 0.00 0.00 0.00 69 1011.0
20260505064047 55 152 0.0 1.0 0.00 0.00 0.00 70 1011.0
20260505063518 55 152 0.0 0.0 0.00 0.00 0.00 71 1011.0
20260505063042 55 152 0.0 0.0 0.00 0.00 0.00 71 1011.1
20260505062507 55 152 0.0 0.0 0.00 0.00 0.00 70 1011.1
20260505062042 55 152 0.0 0.0 0.00 0.00 0.00 71 1011.1
20260505061504 55 152 0.0 0.0 0.00 0.00 0.00 71 1011.1
20260505061032 55 152 0.0 0.0 0.00 0.00 0.00 69 1011.1
20260505060557 55 152 0.0 0.0 0.00 0.00 0.00 71 1011.1
20260505060034 55 152 0.0 0.0 0.00 0.00 0.00 70 1011.0
20260505055557 55 152 0.0 0.0 0.00 0.00 0.00 71 1011.0
20260505055031 55 152 0.0 0.0 0.00 0.00 0.00 70 1011.0
20260505054558 55 152 0.0 0.0 0.00 0.00 0.00 70 1011.0
20260505054024 55 152 0.0 0.0 0.00 0.00 0.00 70 1010.9
20260505053544 56 152 0.0 0.0 0.00 0.00 0.00 69 1010.9
20260505053024 56 152 0.0 0.0 0.00 0.00 0.00 67 1011.1
20260505052541 56 152 0.0 0.0 0.00 0.00 0.00 70 1011.1
20260505052011 56 152 0.0 0.0 0.00 0.00 0.00 67 1011.1
20260505051545 56 152 0.0 0.0 0.00 0.00 0.00 68 1011.3
20260505051008 56 152 0.0 0.0 0.00 0.00 0.00 69 1011.3
20260505050542 56 152 0.0 0.0 0.00 0.00 0.00 68 1011.3
20260505041525 57 152 0.0 0.0 0.00 0.00 0.00 66 1011.4
20260505041050 57 152 0.0 2.0 0.00 0.00 0.00 66 1011.4
20260505040524 57 152 0.0 2.0 0.00 0.00 0.00 66 1011.4
20260505040039 57 153 0.0 1.0 0.00 0.00 0.00 67 1011.6
20260505035602 57 153 0.0 1.0 0.00 0.00 0.00 68 1011.6
20260505035503 57 153 0.0 1.0 0.00 0.00 0.00 69 1011.6
20260505035027 56 153 0.0 0.0 0.00 0.00 0.00 70 1011.6
20260505034551 56 153 0.0 0.0 0.00 0.00 0.00 68 1011.7
20260505034014 56 153 0.0 0.0 0.00 0.00 0.00 69 1011.7
20260505033543 56 153 0.0 0.0 0.00 0.00 0.00 71 1011.7
20260505033026 56 153 0.0 0.0 0.00 0.00 0.00 69 1011.8
20260505032544 57 153 0.0 0.0 0.00 0.00 0.00 68 1011.8
20260505032010 57 153 0.0 0.0 0.00 0.00 0.00 69 1011.8
20260505031554 57 153 0.0 0.0 0.00 0.00 0.00 70 1011.6
20260505031010 57 153 0.0 0.0 0.00 0.00 0.00 70 1011.6
20260505030537 57 153 0.0 0.0 0.00 0.00 0.00 69 1011.6
20260505030007 57 153 0.0 0.0 0.00 0.00 0.00 68 1011.6
20260505025531 57 153 0.0 0.0 0.00 0.00 0.00 66 1011.6
20260505025100 57 153 0.0 0.0 0.00 0.00 0.00 67 1011.6
20260505024545 57 153 0.0 0.0 0.00 0.00 0.00 66 1011.6
20260505024059 58 153 0.0 0.0 0.00 0.00 0.00 66 1011.6
20260505023529 58 153 0.0 0.0 0.00 0.00 0.00 66 1011.6
20260505023056 58 153 0.0 0.0 0.00 0.00 0.00 64 1011.6
20260505022528 58 153 0.0 0.0 0.00 0.00 0.00 65 1011.6
20260505022049 58 153 0.0 0.0 0.00 0.00 0.00 66 1011.6
20260505021513 58 153 0.0 0.0 0.00 0.00 0.00 67 1011.4
20260505021044 58 153 0.0 1.0 0.00 0.00 0.00 67 1011.4
20260505020507 58 153 0.0 1.0 0.00 0.00 0.00 66 1011.4
20260505020041 58 153 0.0 0.0 0.00 0.00 0.00 67 1011.3
20260505015551 58 153 0.0 0.0 0.00 0.00 0.00 65 1011.3
20260505015019 58 153 0.0 1.0 0.00 0.00 0.00 67 1011.3
20260505014537 58 153 0.0 1.0 0.00 0.00 0.00 65 1011.2
20260505014058 58 153 0.0 0.0 0.00 0.00 0.00 66 1011.2
20260505013528 58 153 0.0 0.0 0.00 0.00 0.00 64 1011.2
20260505013057 59 153 0.0 0.0 0.00 0.00 0.00 63 1011.2
20260505012520 59 153 0.0 0.0 0.00 0.00 0.00 66 1011.1
20260505012049 59 153 0.0 0.0 0.00 0.00 0.00 64 1011.1
20260505011521 60 153 0.0 0.0 0.00 0.00 0.00 63 1011.2
20260505011045 60 153 0.0 0.0 0.00 0.00 0.00 62 1011.2
20260505010508 60 153 0.0 0.0 0.00 0.00 0.00 61 1011.2
20260505010043 60 153 0.0 0.0 0.00 0.00 0.00 60 1011.0
20260505005509 61 153 0.0 0.0 0.00 0.00 0.00 59 1011.0
20260505005039 61 153 0.0 0.0 0.00 0.00 0.00 57 1011.0
20260505004513 62 153 0.0 0.0 0.00 0.00 0.00 55 1010.8
20260505004038 62 153 0.0 1.0 0.00 0.00 0.00 54 1010.8
20260505003502 62 153 0.0 1.0 0.00 0.00 0.00 53 1010.8
20260505003033 62 153 0.0 1.0 0.00 0.00 0.00 52 1010.8
20260505002600 63 153 0.0 0.0 0.00 0.00 0.00 51 1010.8
20260505002021 63 153 0.0 0.0 0.00 0.00 0.00 51 1010.8
20260505001551 63 153 0.0 0.0 0.00 0.00 0.00 49 1010.8
20260505001028 63 153 0.0 0.0 0.00 0.00 0.00 50 1010.7
20260505000550 64 153 0.0 0.0 0.00 0.00 0.00 49 1010.7
20260505000025 64 153 0.0 0.0 0.00 0.00 0.00 48 1010.6
20260504235552 65 153 0.0 0.0 0.00 0.00 0.00 47 1010.6
20260504235017 65 153 0.0 0.0 0.00 0.00 0.00 50 1010.6
20260504234546 65 153 0.0 0.0 0.00 0.00 0.00 45 1010.5
20260504234014 66 153 0.0 3.0 0.00 0.00 0.00 47 1010.5
20260504233542 66 153 0.0 1.0 0.00 0.00 0.00 45 1010.5
20260504233009 66 28 0.0 2.0 0.00 0.00 0.00 45 1010.4
20260504232543 66 40 0.0 5.0 0.00 0.00 0.00 47 1010.4
20260504232016 67 344 0.0 5.0 0.00 0.00 0.00 45 1010.4
20260504231547 67 36 0.0 4.0 0.00 0.00 0.00 48 1010.2
20260504231014 67 71 0.0 7.0 0.00 0.00 0.00 46 1010.2
20260504230546 67 74 1.0 7.0 0.00 0.00 0.00 47 1010.2
20260504230011 67 279 0.0 4.0 0.00 0.00 0.00 47 1010.1
20260504225542 67 323 0.0 5.0 0.00 0.00 0.00 49 1010.1
20260504225046 68 321 0.0 5.0 0.00 0.00 0.00 45 1010.1
20260504224517 68 292 0.0 2.0 0.00 0.00 0.00 48 1010.2
20260504224046 68 300 0.0 7.0 0.00 0.00 0.00 47 1010.2
20260504223603 68 277 0.0 7.0 0.00 0.00 0.00 45 1010.2
20260504223501 68 277 0.0 7.0 0.00 0.00 0.00 45 1010.2
20260504223030 68 19 0.0 4.0 0.00 0.00 0.00 44 1010.1
20260504222553 69 337 0.0 3.0 0.00 0.00 0.00 44 1010.1
20260504222024 69 294 0.0 5.0 0.00 0.00 0.00 43 1010.1
20260504221553 69 306 0.0 5.0 0.00 0.00 0.00 44 1010.1
20260504221024 69 80 0.0 1.0 0.00 0.00 0.00 44 1010.1
20260504220553 69 80 0.0 7.0 0.00 0.00 0.00 42 1010.1
20260504220015 69 90 1.0 7.0 0.00 0.00 0.00 41 1010.1
20260504215551 70 333 0.0 7.0 0.00 0.00 0.00 41 1010.1
20260504215011 70 34 1.0 9.0 0.00 0.00 0.00 41 1010.1
20260504214542 70 14 0.0 9.0 0.00 0.00 0.00 41 1010.1
20260504214005 70 82 0.0 4.0 0.00 0.00 0.00 40 1010.1
20260504213534 70 88 0.0 5.0 0.00 0.00 0.00 41 1010.1
20260504213003 71 89 0.0 3.0 0.00 0.00 0.00 39 1010.1
20260504212534 71 93 0.0 3.0 0.00 0.00 0.00 39 1010.1
20260504212058 71 240 0.0 4.0 0.00 0.00 0.00 39 1010.1
20260504211528 71 238 0.0 8.0 0.00 0.00 0.00 39 1010.2
20260504211052 71 71 1.0 11.0 0.00 0.00 0.00 41 1010.2
20260504210522 71 51 0.0 11.0 0.00 0.00 0.00 40 1010.2
20260504205518 71 57 0.0 8.0 0.00 0.00 0.00 40 1010.2
20260504205056 71 26 0.0 5.0 0.00 0.00 0.00 39 1010.2
20260504204531 71 23 0.0 5.0 0.00 0.00 0.00 39 1010.3
20260504204050 71 296 0.0 6.0 0.00 0.00 0.00 36 1010.3
20260504203528 71 305 0.0 6.0 0.00 0.00 0.00 35 1010.3
20260504203131 72 35 0.0 9.0 0.00 0.00 0.00 33 1010.3
20260504202530 72 111 1.0 10.0 0.00 0.00 0.00 33 1010.7
20260504202100 72 295 0.0 10.0 0.00 0.00 0.00 34 1010.7
20260504201530 71 281 1.0 10.0 0.00 0.00 0.00 32 1010.8
20260504201004 71 123 1.0 9.0 0.00 0.00 0.00 32 1010.8
20260504200536 71 51 0.0 6.0 0.00 0.00 0.00 31 1010.8
20260504200005 72 128 0.0 5.0 0.00 0.00 0.00 31 1010.9
20260504195536 72 192 0.0 8.0 0.00 0.00 0.00 32 1010.9
20260504195003 72 294 1.0 8.0 0.00 0.00 0.00 32 1010.9
20260504194536 72 17 0.0 6.0 0.00 0.00 0.00 32 1011.1
20260504194052 71 360 0.0 6.0 0.00 0.00 0.00 33 1011.1
20260504193529 71 300 2.0 6.0 0.00 0.00 0.00 31 1011.1
20260504193055 72 63 1.0 6.0 0.00 0.00 0.00 31 1011.1
20260504192520 72 309 0.0 6.0 0.00 0.00 0.00 30 1011.4
20260504192048 72 288 0.0 7.0 0.00 0.00 0.00 36 1011.4
20260504191514 72 337 1.0 7.0 0.00 0.00 0.00 31 1011.4
20260504191034 73 5 0.0 8.0 0.00 0.00 0.00 33 1011.4
20260504190506 73 238 0.0 8.0 0.00 0.00 0.00 30 1011.4
20260504190026 73 136 1.0 8.0 0.00 0.00 0.00 33 1011.5
20260504185553 73 348 0.0 4.0 0.00 0.00 0.00 37 1011.5
20260504185022 72 345 0.0 4.0 0.00 0.00 0.00 35 1011.5
20260504184550 72 344 1.0 4.0 0.00 0.00 0.00 34 1011.5
20260504184019 72 346 0.0 7.0 0.00 0.00 0.00 35 1011.7
20260504183538 72 245 1.0 7.0 0.00 0.00 0.00 32 1011.7
20260504183010 73 160 0.0 2.0 0.00 0.00 0.00 33 1011.9
20260504182537 73 157 0.0 2.0 0.00 0.00 0.00 33 1011.9
20260504182100 73 316 0.0 4.0 0.00 0.00 0.00 34 1011.9
20260504182001 73 302 0.0 4.0 0.00 0.00 0.00 33 1011.9
20260504181534 73 302 0.0 5.0 0.00 0.00 0.00 32 1012.0
20260504181056 74 299 0.0 7.0 0.00 0.00 0.00 30 1012.0
20260504180532 74 67 1.0 7.0 0.00 0.00 0.00 32 1012.0
20260504180109 73 117 0.0 2.0 0.00 0.00 0.00 34 1012.0
20260504175521 73 280 0.0 0.0 0.00 0.00 0.00 33 1012.2
20260504175044 73 280 0.0 0.0 0.00 0.00 0.00 34 1012.2
20260504174519 73 281 0.0 1.0 0.00 0.00 0.00 34 1012.6
20260504174038 72 282 0.0 1.0 0.00 0.00 0.00 33 1012.6
20260504173508 72 282 0.0 0.0 0.00 0.00 0.00 29 1012.6
20260504173040 72 283 0.0 0.0 0.00 0.00 0.00 29 1012.7
20260504172502 71 283 0.0 1.0 0.00 0.00 0.00 33 1012.7
20260504172033 71 283 0.0 0.0 0.00 0.00 0.00 31 1012.7
20260504171556 70 279 0.0 0.0 0.00 0.00 0.00 34 1012.7
20260504171020 69 279 0.0 2.0 0.00 0.00 0.00 30 1012.8
20260504170544 70 279 0.0 2.0 0.00 0.00 0.00 31 1012.8
20260504160106 67 278 0.0 0.0 0.00 0.00 0.00 38 1013.9
20260504151039 64 300 0.0 1.0 0.00 0.00 0.00 44 1014.5
20260504150508 64 300 0.0 0.0 0.00 0.00 0.00 43 1014.5
20260504141027 59 300 0.0 0.0 0.00 0.00 0.00 56 1014.8
20260504140558 59 300 0.0 0.0 0.00 0.00 0.00 58 1014.8
20260504130529 47 300 0.0 0.0 0.00 0.00 0.00 81 1014.7
20260504110533 38 290 0.0 0.0 0.00 0.00 0.00 73 1014.3